Weather History for KTIP - September, 2013

Change the Weather History Date:

Friday, September 13, 2013

  Actual Average (KCMI) Record (KCMI)
Temperature  
Mean Temperature 62 °F 67 °F  
Max Temperature 71 °F 79 °F - ()
Min Temperature 54 °F 54 °F - ()
Degree Days  
Heating Degree Days 2 2  
Month to date heating degree days 11  
Since 1 July heating degree days 20  
Cooling Degree Days 0 3  
Month to date cooling degree days 60  
Year to date cooling degree days 887  
Growing Degree Days 12 (Base 50)    
Moisture  
Dew Point 49 °F    
Average Humidity 65    
Maximum Humidity 89    
Minimum Humidity 35    
Precipitation  
Precipitation 0.00 in 0.12 in - ()
Month to date precipitation 1.62  
Year to date precipitation 28.90  
Sea Level Pressure  
Sea Level Pressure 30.12 in    
Wind  
Wind Speed 9 mph (NNE)    
Max Wind Speed 16 mph    
Max Gust Speed 21 mph    
Visibility 10 miles    
Events      
T = Trace of Precipitation, MM = Missing Value Source: NWS Daily Summary

Daily Weather History Graph

Daily Weather History Graph

Search for Another Location

Airport or City:

Trip Planner

Search our weather history database for the weather conditions in past years. The results will help you decide how hot, cold, wet, or windy it might be!

Date:

Astronomy

Sep. 13, 2013 Rise Set
Actual Time 6:31 AM CDT 7:04 PM CDT
Civil Twilight 6:04 AM CDT 7:31 PM CDT
Nautical Twilight 5:32 AM CDT 8:03 PM CDT
Astronomical Twilight 4:58 AM CDT 8:36 PM CDT
Moon 2:54 PM CDT (9/13) 12:00 AM CDT (9/13)
Length of Visible Light 13h 27m
Length of Day
12h 32m
First Quarter, 61% of the Moon is Illuminated
Sep 13
First Quarter
Sep 19
Full
Sep 26
Last Quarter
Oct 4
New
Oct 11
First Quarter

Hourly Weather History & Observations

Time (CDT) Temp. Dew Point Humidity Pressure Visibility Wind Dir Wind Speed Gust Speed Precip Events Conditions
12:15 AM 64.8 °F 57.7 °F 78% 30.07 in 10.0 mi North 8.1 mph - N/A   Clear
12:35 AM 64.4 °F 57.6 °F 78% 30.07 in 10.0 mi North 9.2 mph - N/A   Clear
12:55 AM 63.9 °F 57.6 °F 80% 30.07 in 10.0 mi North 6.9 mph - N/A   Clear
1:15 AM 63.9 °F 57.2 °F 79% 30.07 in 10.0 mi North 8.1 mph - N/A   Clear
1:35 AM 63.7 °F 57.2 °F 79% 30.07 in 10.0 mi North 6.9 mph - N/A   Clear
1:55 AM 63.0 °F 57.2 °F 81% 30.07 in 10.0 mi North 9.2 mph - N/A   Clear
2:15 AM 62.2 °F 57.0 °F 83% 30.07 in 10.0 mi North 9.2 mph - N/A   Clear
2:35 AM 61.7 °F 56.3 °F 82% 30.08 in 10.0 mi NNE 9.2 mph - N/A   Clear
2:55 AM 61.5 °F 56.3 °F 83% 30.08 in 10.0 mi NNE 8.1 mph - N/A   Clear
3:15 AM 61.0 °F 56.1 °F 84% 30.08 in 10.0 mi NNE 5.8 mph - N/A   Clear
3:35 AM 60.4 °F 55.9 °F 85% 30.08 in 10.0 mi NNE 5.8 mph - N/A   Clear
3:55 AM 60.1 °F 56.1 °F 87% 30.09 in 10.0 mi North 4.6 mph - N/A   Clear
4:15 AM 59.9 °F 56.3 °F 88% 30.10 in 10.0 mi North 4.6 mph - N/A   Clear
4:35 AM 59.0 °F 55.4 °F 88% 30.10 in 10.0 mi NNW 4.6 mph - N/A   Clear
4:55 AM 59.0 °F 55.6 °F 88% 30.10 in 10.0 mi North 4.6 mph - N/A   Clear
5:15 AM 59.2 °F 55.6 °F 88% 30.11 in 10.0 mi North 4.6 mph - N/A   Scattered Clouds
5:35 AM 58.8 °F 55.4 °F 88% 30.11 in 10.0 mi North 4.6 mph - N/A   Scattered Clouds
5:55 AM 58.1 °F 54.9 °F 89% 30.12 in 10.0 mi NNW 4.6 mph - N/A   Mostly Cloudy
6:15 AM 58.1 °F 54.9 °F 89% 30.13 in 10.0 mi NNW 3.5 mph - N/A   Mostly Cloudy
6:35 AM 58.1 °F 54.5 °F 88% 30.13 in 10.0 mi North 6.9 mph - N/A   Scattered Clouds
7:15 AM 57.7 °F 53.2 °F 85% 30.14 in 10.0 mi North 9.2 mph - N/A   Clear
7:35 AM 58.5 °F 51.8 °F 79% 30.14 in 10.0 mi North 10.4 mph 16.1 mph N/A   Clear
7:55 AM 58.6 °F 50.4 °F 74% 30.14 in 10.0 mi North 11.5 mph - N/A   Clear
8:35 AM 59.5 °F 49.5 °F 69% 30.15 in 10.0 mi North 10.4 mph 16.1 mph N/A   Mostly Cloudy
8:55 AM 60.3 °F 48.9 °F 66% 30.15 in 10.0 mi North 12.7 mph 16.1 mph N/A   Scattered Clouds
9:15 AM 61.3 °F 49.3 °F 65% 30.15 in 10.0 mi North 9.2 mph - N/A   Clear
9:55 AM 63.0 °F 49.5 °F 61% 30.16 in 10.0 mi North 9.2 mph - N/A   Scattered Clouds
10:15 AM 63.0 °F 48.7 °F 60% 30.17 in 10.0 mi North 10.4 mph - N/A   Scattered Clouds
10:35 AM 64.6 °F 47.3 °F 53% 30.16 in 10.0 mi North 9.2 mph - N/A   Scattered Clouds
10:55 AM 65.5 °F 47.1 °F 51% 30.16 in 10.0 mi North 5.8 mph 16.1 mph N/A   Scattered Clouds
11:55 AM 67.5 °F 46.8 °F 47% 30.16 in 10.0 mi North 11.5 mph - N/A   Clear
12:15 PM 67.1 °F 46.9 °F 48% 30.15 in 10.0 mi North 11.5 mph - N/A   Scattered Clouds
12:35 PM 67.6 °F 46.9 °F 47% 30.15 in 10.0 mi NNE 11.5 mph 18.4 mph N/A   Scattered Clouds
12:55 PM 68.5 °F 45.9 °F 44% 30.14 in 10.0 mi NNE 13.8 mph - N/A   Scattered Clouds
1:35 PM 70.7 °F 44.8 °F 39% 30.13 in 10.0 mi NNE 15.0 mph - N/A   Scattered Clouds
1:55 PM 69.8 °F 44.6 °F 40% 30.12 in 10.0 mi North 16.1 mph 19.6 mph N/A   Clear
2:15 PM 70.2 °F 44.1 °F 39% 30.12 in 10.0 mi North 11.5 mph 19.6 mph N/A   Scattered Clouds
3:35 PM 70.5 °F 42.4 °F 36% 30.11 in 10.0 mi NNE 11.5 mph 20.7 mph N/A   Scattered Clouds
3:55 PM 71.4 °F 42.8 °F 36% 30.10 in 10.0 mi NNE 13.8 mph 19.6 mph N/A   Scattered Clouds
4:15 PM 71.2 °F 43.5 °F 37% 30.11 in 10.0 mi NNE 13.8 mph - N/A   Scattered Clouds
4:35 PM 71.1 °F 42.3 °F 35% 30.11 in 10.0 mi NNE 16.1 mph 20.7 mph N/A   Scattered Clouds
4:55 PM 70.7 °F 42.4 °F 36% 30.11 in 10.0 mi NNE 15.0 mph 20.7 mph N/A   Scattered Clouds
5:15 PM 70.0 °F 42.1 °F 36% 30.11 in 10.0 mi North 12.7 mph - N/A   Scattered Clouds
5:35 PM 69.8 °F 42.6 °F 37% 30.11 in 10.0 mi NNE 13.8 mph 19.6 mph N/A   Scattered Clouds
5:55 PM 69.3 °F 41.9 °F 37% 30.11 in 10.0 mi NNE 13.8 mph 18.4 mph N/A   Clear
6:55 PM 64.9 °F 45.5 °F 49% 30.12 in 10.0 mi NE 10.4 mph - N/A   Clear
7:15 PM 63.0 °F 45.3 °F 53% 30.12 in 10.0 mi NE 9.2 mph - N/A   Clear
7:35 PM 62.1 °F 44.4 °F 52% 30.12 in 10.0 mi NE 9.2 mph - N/A   Clear
7:55 PM 61.0 °F 44.6 °F 55% 30.13 in 10.0 mi NE 8.1 mph - N/A   Clear
8:15 PM 60.3 °F 44.6 °F 56% 30.14 in 10.0 mi NE 8.1 mph - N/A   Clear
8:35 PM 59.4 °F 44.6 °F 58% 30.14 in 10.0 mi NE 8.1 mph - N/A   Clear
9:55 PM 56.3 °F 45.5 °F 67% 30.14 in 10.0 mi NE 8.1 mph - N/A   Clear
10:15 PM 55.8 °F 45.7 °F 69% 30.15 in 10.0 mi NE 6.9 mph - N/A   Clear
10:35 PM 55.4 °F 45.7 °F 70% 30.15 in 10.0 mi NE 5.8 mph - N/A   Clear
10:55 PM 54.5 °F 45.9 °F 73% 30.15 in 10.0 mi NNE 4.6 mph - N/A   Clear
11:15 PM 54.1 °F 45.7 °F 73% 30.15 in 10.0 mi NNE 5.8 mph - N/A   Clear
11:35 PM 54.5 °F 45.7 °F 72% 30.15 in 10.0 mi NNE 6.9 mph - N/A   Clear
11:55 PM 54.1 °F 45.7 °F 73% 30.15 in 10.0 mi NNE 6.9 mph - N/A   Clear